Samuel Hill Observation History
Time Wind Speed Temp Pressure Rel. Hum Rain
04/03:30am SE 3-4 kts 7.6°c 1021.9 hPa 80% 0.2mm
04/03:00am SSE 5-6 kts 9.7°c 1021.9 hPa 75% 0.2mm
04/02:30am SSE 5-6 kts 10.0°c 1022.1 hPa 77% 0.2mm
04/02:00am SSE 5-7 kts 8.9°c 1022.1 hPa 87% 0.2mm
04/01:30am SE 3-4 kts 6.5°c 1022.3 hPa 88% 0.2mm
04/01:00am SSE 5-6 kts 9.2°c 1022.4 hPa 89% 0.2mm
04/12:30am SE 4-5 kts 6.2°c 1022.6 hPa 94% 0.2mm
04/12:00am NNE 1-4 kts 5.9°c 1022.5 hPa 93% 0.2mm
Time Wind Speed Temp Pressure Rel. Hum Rain
03/11:30pm CALM 0 kts 6.6°c 1022.3 hPa 93% 0.2mm
03/11:00pm SSE 5-6 kts 7.1°c 1022.2 hPa 94% 0.2mm
03/10:30pm NE 1-4 kts 6.4°c 1022.6 hPa 92% 0.2mm
03/10:00pm CALM 0 kts 6.8°c 1022.4 hPa 92% 0.2mm
03/09:30pm CALM 0 kts 6.7°c 1022.5 hPa 91% 0.2mm
03/09:00pm CALM 0 kts 7.8°c 1022.4 hPa 90% 0.2mm
03/08:30pm CALM 0 kts 7.9°c 1022.4 hPa 90% 0.2mm
03/08:00pm CALM 0 kts 8.5°c 1022.1 hPa 89% 0.2mm
03/07:30pm CALM 0 kts 9.0°c 1021.8 hPa 86% 0.2mm
03/07:00pm CALM 0 kts 9.6°c 1021.5 hPa 84% 0.2mm
03/06:30pm CALM 0 kts 10.8°c 1021.1 hPa 81% 0.2mm
03/06:00pm CALM 0 kts 11.9°c 1020.9 hPa 75% 0.2mm
03/05:30pm CALM 0 kts 14.8°c 1020.4 hPa 60% 0.2mm
03/05:28pm CALM 0 kts 15.1°c 1020.4 hPa 58% 0.2mm
03/05:00pm WSW 1-5 kts 20.1°c 1020.1 hPa 44% 0.2mm
03/04:30pm SSW 3-4 kts 21.6°c 1019.9 hPa 31% 0.2mm
03/04:00pm SW 3-5 kts 21.8°c 1019.8 hPa 30% 0.2mm
03/03:30pm SW 1-5 kts 22.2°c 1019.9 hPa 29% 0.2mm
03/03:00pm SW 2-4 kts 22.6°c 1019.8 hPa 30% 0.2mm
03/02:30pm NNW 4-6 kts 21.7°c 1019.8 hPa 29% 0.2mm
03/02:00pm SSW 3-6 kts 21.3°c 1020.0 hPa 29% 0.2mm
03/01:30pm S 7-11 kts 20.6°c 1020.2 hPa 30% 0.2mm
03/01:00pm SSW 5-9 kts 20.5°c 1020.5 hPa 25% 0.2mm
03/12:30pm SW 6-9 kts 19.8°c 1021.1 hPa 29% 0.0mm
03/12:00pm SSE 5-9 kts 19.9°c 1021.8 hPa 33% 0.0mm
03/11:30am S 6-9 kts 18.4°c 1022.2 hPa 32% 0.0mm
03/11:00am S 7-11 kts 17.6°c 1022.8 hPa 32% 0.0mm
03/10:30am SSE 7-9 kts 17.1°c 1023.2 hPa 34% 0.0mm
03/10:00am S 7-11 kts 16.7°c 1023.2 hPa 34% 0.0mm
03/09:30am SSW 5-8 kts 15.1°c 1023.5 hPa 49% 0.0mm
03/09:00am SSW 4-7 kts 13.7°c 1023.4 hPa 51% 0.0mm
03/08:30am WSW 3-4 kts 12.2°c 1023.2 hPa 57% 0.0mm
03/08:00am SSE 3-4 kts 11.5°c 1023.0 hPa 65% 0.0mm
03/07:30am CALM 0 kts 8.6°c 1022.9 hPa 94% 0.0mm
03/07:00am CALM 0 kts 5.3°c 1022.6 hPa 93% 0.0mm
03/06:30am CALM 0-3 kts 4.0°c 1022.1 hPa 90% 0.0mm
03/06:00am CALM 0 kts 4.4°c 1021.5 hPa 89% 0.0mm
03/05:30am NNE 2-5 kts 5.2°c 1021.1 hPa 84% 0.0mm
03/05:00am SW 5-6 kts 5.5°c 1021.0 hPa 85% 0.0mm
03/04:30am WSW 6-8 kts 7.4°c 1020.8 hPa 75% 0.0mm
03/04:00am SW 4-5 kts 7.0°c 1020.7 hPa 80% 0.0mm
03/03:30am SSW 5-7 kts 7.2°c 1020.9 hPa 81% 0.0mm
03/03:00am SSW 5-6 kts 7.1°c 1020.9 hPa 84% 0.0mm
03/02:30am WSW 5-6 kts 6.5°c 1021.0 hPa 91% 0.0mm
03/02:00am WNW 3-5 kts 7.0°c 1021.1 hPa 88% 0.0mm
03/01:30am S 5-6 kts 7.6°c 1021.3 hPa 84% 0.0mm
03/01:00am SSW 5-9 kts 8.0°c 1021.5 hPa 89% 0.0mm
03/12:30am WNW 3-5 kts 7.2°c 1021.7 hPa 95% 0.0mm
03/12:00am NNE 2-4 kts 6.6°c 1021.7 hPa 92% 0.0mm
Time Wind Speed Temp Pressure Rel. Hum Rain
02/11:30pm NNW 1-3 kts 6.9°c 1021.9 hPa 92% 0.0mm
02/11:00pm CALM 0 kts 8.0°c 1022.0 hPa 93% 0.0mm
02/10:30pm CALM 0 kts 8.1°c 1021.9 hPa 92% 0.0mm
02/10:00pm SSE 4-5 kts 8.3°c 1021.8 hPa 92% 0.0mm
02/09:30pm E 3-4 kts 8.4°c 1021.9 hPa 89% 0.0mm
02/09:00pm CALM 0 kts 9.7°c 1021.8 hPa 91% 0.0mm
02/08:30pm CALM 0-2 kts 9.8°c 1021.5 hPa 89% 0.0mm
02/08:00pm SW 3-6 kts 10.3°c 1021.0 hPa 87% 0.0mm
02/07:30pm CALM 0 kts 11.4°c 1020.9 hPa 86% 0.0mm
02/07:00pm N 1-4 kts 12.0°c 1020.3 hPa 82% 0.0mm
02/06:30pm CALM 0 kts 13.6°c 1020.0 hPa 79% 0.0mm
02/06:00pm CALM 0 kts 14.8°c 1019.5 hPa 66% 0.0mm
02/05:30pm SW 5-7 kts 19.5°c 1019.0 hPa 44% 0.0mm
02/05:00pm SW 4-6 kts 22.0°c 1018.9 hPa 38% 0.0mm
02/04:30pm S 5-9 kts 22.7°c 1018.5 hPa 37% 0.0mm
02/04:00pm S 7-9 kts 23.4°c 1018.3 hPa 35% 0.0mm
02/03:30pm S 7-11 kts 24.0°c 1018.2 hPa 35% 0.0mm
02/03:00pm S 7-10 kts 24.4°c 1018.1 hPa 32% 0.0mm
02/02:30pm SW 6-9 kts 25.2°c 1018.0 hPa 36% 0.0mm
02/02:00pm SW 5-8 kts 25.1°c 1018.0 hPa 35% 0.0mm
02/01:30pm S 6-8 kts 24.8°c 1018.2 hPa 37% 0.0mm
02/01:00pm S 5-8 kts 24.6°c 1018.5 hPa 36% 0.0mm
02/12:30pm SSE 8-12 kts 24.1°c 1018.8 hPa 37% 0.0mm
02/12:00pm SSE 7-10 kts 23.5°c 1019.2 hPa 40% 0.0mm
02/11:30am SSE 8-11 kts 22.7°c 1019.6 hPa 44% 0.0mm
02/11:00am S 8-12 kts 23.0°c 1019.7 hPa 45% 0.0mm
02/10:30am S 7-9 kts 22.7°c 1019.7 hPa 47% 0.0mm
02/10:00am S 8-11 kts 22.0°c 1020.0 hPa 49% 0.0mm
02/09:30am S 6-8 kts 21.5°c 1020.0 hPa 56% 0.0mm
02/09:00am S 7-10 kts 20.7°c 1020.0 hPa 63% 0.0mm
02/08:30am SW 4-6 kts 19.0°c 1020.1 hPa 87% 0.0mm
02/08:00am E 1-3 kts 17.1°c 1019.9 hPa 100% 0.0mm
02/07:30am SSW 1-5 kts 15.4°c 1019.5 hPa 100% 0.0mm
02/07:00am ESE 2-7 kts 13.4°c 1018.9 hPa 99% 0.0mm
02/06:30am CALM 0-5 kts 12.1°c 1018.7 hPa 99% 0.0mm
02/06:22am SSW 1-3 kts 12.2°c 1018.6 hPa 99% 0.0mm
02/06:17am S 2-6 kts 12.5°c 1018.6 hPa 99% 0.0mm
02/06:16am S 3-6 kts 12.4°c 1018.7 hPa 99% 0.0mm
02/06:11am WSW 2-6 kts 12.5°c 1018.5 hPa 99% 0.0mm
02/06:00am CALM 0 kts 12.5°c 1018.1 hPa 99% 0.0mm
02/05:30am CALM 0 kts 12.2°c 1017.5 hPa 98% 0.0mm
02/05:12am CALM 0 kts 12.2°c 1017.3 hPa 99% 0.0mm
02/05:08am CALM 0 kts 12.4°c 1017.3 hPa 99% 0.0mm
02/05:00am CALM 0 kts 12.5°c 1017.1 hPa 99% 0.0mm
02/04:32am CALM 0 kts 12.3°c 1017.1 hPa 99% 0.0mm
02/04:30am CALM 0 kts 12.3°c 1017.0 hPa 99% 0.0mm
02/04:28am CALM 0 kts 12.4°c 1017.0 hPa 99% 0.0mm
02/04:08am CALM 0 kts 12.9°c 1017.0 hPa 99% 0.0mm
02/04:00am NW 1-3 kts 13.0°c 1016.9 hPa 99% 0.0mm
02/03:55am NW 2-3 kts 13.1°c 1017.0 hPa 98% 0.0mm
02/03:30am CALM 0 kts 12.2°c 1016.9 hPa 97% 0.0mm
02/03:27am CALM 0 kts 12.1°c 1016.9 hPa 97% 0.0mm
02/03:24am CALM 0 kts 12.1°c 1016.9 hPa 97% 0.0mm
02/03:00am CALM 0 kts 12.0°c 1016.9 hPa 96% 0.0mm
02/02:30am CALM 0 kts 12.0°c 1017.0 hPa 95% 0.0mm
02/02:29am CALM 0 kts 11.9°c 1017.0 hPa 95% 0.0mm
02/02:28am CALM 0 kts 11.9°c 1017.1 hPa 95% 0.0mm
02/02:27am CALM 0 kts 11.8°c 1017.0 hPa 95% 0.0mm
02/02:00am CALM 0 kts 11.7°c 1017.1 hPa 95% 0.0mm
02/01:30am W 3-4 kts 12.5°c 1017.2 hPa 96% 0.0mm
02/01:00am CALM 0 kts 12.5°c 1017.3 hPa 95% 0.0mm
02/12:30am CALM 0 kts 12.4°c 1017.5 hPa 94% 0.0mm
02/12:00am CALM 0 kts 12.5°c 1017.4 hPa 94% 0.0mm